Location: Unspecified
(0.0000°N, 0.0000°E)
Time: 23:10:32
(UTC+01:00)

Hubble Space Telescope - Visible Passes

Search period start: 27 March 2015 00:00
Search period end: 06 April 2015 01:00
Orbit: 543 x 547 km, 28.5° (Epoch: 26 March)

Date Brightness Start Highest point End Pass type
(mag) Time Alt. Az. Time Alt. Az. Time Alt. Az.
28 Mar 3.0 20:18:02 10° N 20:19:49 13° NNE 20:19:49 13° NNE visible
29 Mar 2.5 21:08:51 10° NNW 21:11:43 18° NNE 21:12:18 18° NE visible
30 Mar 2.1 20:59:58 10° NNW 21:03:26 26° NNE 21:04:49 21° ENE visible
31 Mar 1.5 20:51:16 10° NW 20:55:07 37° NNE 20:57:22 21° E visible
31 Mar 4.1 22:32:41 10° W 22:32:52 11° W 22:32:52 11° W visible
01 Apr 1.0 20:42:42 10° NW 20:46:46 55° NNE 20:49:55 16° ESE visible
01 Apr 3.8 22:24:47 10° W 22:25:25 13° WSW 22:25:25 13° WSW visible
02 Apr 3.4 06:59:27 10° S 07:01:08 12° SSE 07:02:57 10° SE visible
02 Apr 0.8 20:34:15 10° WNW 20:38:24 84° NNE 20:42:28 11° ESE visible
02 Apr 3.7 22:17:09 10° WSW 22:17:58 13° WSW 22:17:58 13° WSW visible
03 Apr 3.1 06:50:07 10° SSW 06:52:51 17° SSE 06:55:41 10° ESE visible
03 Apr 1.1 20:25:56 10° WNW 20:30:02 64° SSW 20:34:10 10° SE visible
03 Apr 3.7 22:10:03 10° SW 22:10:30 11° SW 22:10:30 11° SW visible
04 Apr 2.7 06:42:32 17° S 06:44:33 24° SSE 06:47:59 10° E visible
05 Apr 2.0 06:35:04 29° S 06:36:12 34° SSE 06:40:02 10° E visible
